Location: Codford Saint Peter
(51.1597°N, 2.0531°W)
Time: 18:19:29
(UTC+00:00)

Cosmos 2263 Rocket - Visible Passes

Search period start: 26 January 2021 00:00
Search period end: 05 February 2021 00:00
Orbit: 823 x 848 km, 71.0° (Epoch: 26 January)

Date Brightness Start Highest point End Pass type
(mag) Time Alt. Az. Time Alt. Az. Time Alt. Az.
26 Jan 3.1 17:19:48 10° SW 17:25:16 48° NW 17:30:45 10° NNE visible
26 Jan 4.5 19:07:18 10° WNW 19:10:40 16° NNW 19:14:02 10° N visible
27 Jan 4.5 18:50:18 10° WNW 18:53:47 16° NNW 18:57:17 10° N visible
28 Jan 4.4 18:33:18 10° WNW 18:36:55 17° NNW 18:40:32 10° N visible
29 Jan 4.4 18:16:18 10° WNW 18:20:03 18° NNW 18:23:48 10° N visible
30 Jan 4.3 17:59:19 10° WNW 18:03:11 18° NNW 18:07:03 10° NNE visible
31 Jan 4.2 17:42:19 10° WNW 17:46:19 19° NNW 17:50:18 10° NNE visible
01 Feb 4.8 21:00:07 10° N 21:00:22 10° N 21:00:22 10° N visible
02 Feb 4.6 18:58:35 10° NNW 18:58:55 10° N 18:59:15 10° N visible
02 Feb 4.7 20:43:23 10° N 20:44:02 11° N 20:44:02 11° N visible
03 Feb 4.6 18:41:19 10° NNW 18:42:01 10° N 18:42:43 10° N visible
03 Feb 4.6 20:26:40 10° N 20:27:41 11° N 20:27:41 11° N visible
04 Feb 4.5 18:24:09 10° NNW 18:25:07 10° N 18:26:04 10° N visible
04 Feb 4.5 20:09:56 10° N 20:11:21 12° N 20:11:21 12° N visible
04 Feb 5.0 21:52:59 10° NNW 21:53:02 10° NNW 21:53:02 10° NNW visible
